SYRACUSE 3B (29273 NORAD) Tracking and Keplerian Element Data

This shows tracking and keplerian element data for the satellite.

Feedback or suggestion? Click here.




ElementValue
Catalog29273
NameSYRACUSE 3B
Epoch Orbit6767
Epoch Day34.68426891
Epoch Year2025
RAAN86.5423
Inclination1.6182
Eccentricity0.000535
Argument of Perigee226.5397
Mean Anonmoly70.686
Mean Motion1.00272609
Decay Rate2.5E-07
L11 29273U 06033B 25034.68426891 .00000025 00000+0 00000+0 0 9998
L22 29273 1.6182 86.5423 0005350 226.5397 70.6860 1.00272609 67678



Live tracking and technical data element details for SYRACUSE 3B (NORAD 29273). SYRACUSE 3B can be tracked NOW for your location showing map with azimuth and elevation plus other details from your city location.







IsCatalogInMostPopularTable: catalog: 29273, numindb: 526
Update: records affected: 1



GetName: 29273 SYRACUSE 3B

Hit Count: updated at: Thu, 22 May 2025 03:52:35 GMT